N0RWU Weather Reports


Display with metric or nautical units.
time (UTC)temp
F
wind
direction
speed
MPH
gust
MPH
rain 1hr
in
rain 24hr
in
rain mn
in
humidity
%
barometer
mb
20260506044827 44 279 1.0 2.0 0.00 0.00 0.00 51 1004.6
20260506043828 44 276 2.0 2.0 0.00 0.00 0.00 50 1004.5
20260506042827 45 300 2.0 4.0 0.00 0.00 0.00 50 1004.6
20260506040826 45 270 2.0 4.0 0.00 0.00 0.00 49 1004.4
20260506035827 46 290 4.0 4.0 0.00 0.00 0.00 47 1004.4
20260506033827 47 275 3.0 4.0 0.00 0.00 0.00 46 1004.2
20260506032827 47 286 2.0 2.0 0.00 0.00 0.00 46 1004.2
20260506031827 48 232 2.0 2.0 0.00 0.00 0.00 45 1004.1
20260506030827 49 290 3.0 4.0 0.00 0.00 0.00 44 1004.0
20260506025827 49 256 3.0 4.0 0.00 0.00 0.00 42 1004.0
20260506024826 50 248 3.0 4.0 0.00 0.00 0.00 42 1003.8
20260506023827 50 289 1.0 2.0 0.00 0.00 0.00 41 1003.8
20260506022827 51 258 6.0 7.0 0.00 0.00 0.00 40 1003.7
20260506020827 52 270 2.0 3.0 0.00 0.00 0.00 40 1003.3
20260506015827 52 301 4.0 4.0 0.00 0.00 0.00 39 1003.3
20260506014827 52 262 3.0 4.0 0.00 0.00 0.00 39 1003.2
20260506013827 53 258 6.0 7.0 0.00 0.00 0.00 38 1003.0
20260506012827 53 271 6.0 6.0 0.00 0.00 0.00 38 1003.0
20260506011827 54 22 6.0 7.0 0.00 0.00 0.00 37 1002.7
20260506010827 54 257 5.0 7.0 0.00 0.00 0.00 36 1002.5
20260506005827 55 271 3.0 4.0 0.00 0.00 0.00 35 1002.4
20260506004828 55 264 7.0 9.0 0.00 0.00 0.00 35 1002.1
20260506003827 55 332 9.0 13.0 0.00 0.00 0.00 35 1002.2
20260506002827 55 261 9.0 10.0 0.00 0.00 0.00 35 1002.1
20260506001827 56 266 6.0 8.0 0.00 0.00 0.00 36 1002.0
20260506000827 56 258 8.0 10.0 0.00 0.00 0.00 35 1001.7
20260505234827 56 147 3.0 4.0 0.00 0.00 0.00 34 1001.9
20260505233828 57 253 10.0 15.0 0.00 0.00 0.00 33 1001.7
20260505232827 57 248 8.0 10.0 0.00 0.00 0.00 33 1001.5
20260505231827 58 250 8.0 10.0 0.00 0.00 0.00 33 1001.3
20260505230827 58 257 8.0 10.0 0.00 0.00 0.00 32 1001.2
20260505225828 58 259 12.0 14.0 0.00 0.00 0.00 32 1001.3
20260505224827 59 247 6.0 7.0 0.00 0.00 0.00 32 1001.3
20260505223827 59 262 10.0 15.0 0.00 0.00 0.00 30 1001.2
20260505222828 60 264 10.0 12.0 0.00 0.00 0.00 31 1001.3
20260505221827 59 250 8.0 10.0 0.00 0.00 0.00 31 1001.3
20260505220827 58 234 10.0 13.0 0.00 0.00 0.00 31 1001.4
20260505215827 59 255 10.0 13.0 0.00 0.00 0.00 31 1001.3
20260505214827 59 243 9.0 10.0 0.00 0.00 0.00 31 1001.4
20260505213828 59 264 5.0 7.0 0.00 0.00 0.00 31 1001.7
20260505212827 60 255 8.0 10.0 0.00 0.00 0.00 31 1001.7
20260505211827 59 267 6.0 8.0 0.00 0.00 0.00 32 1001.7
20260505210827 59 253 11.0 13.0 0.00 0.00 0.00 31 1001.9
20260505205827 59 250 8.0 9.0 0.00 0.00 0.00 31 1001.7
20260505203827 59 249 11.0 12.0 0.00 0.00 0.00 31 1001.9
20260505202828 59 243 11.0 14.0 0.00 0.00 0.00 31 1002.0
20260505201827 60 271 5.0 10.0 0.00 0.00 0.00 32 1001.9
20260505200828 60 245 12.0 18.0 0.00 0.00 0.00 31 1001.9
20260505195827 60 257 6.0 7.0 0.00 0.00 0.00 31 1002.0
20260505192827 60 232 12.0 15.0 0.00 0.00 0.00 31 1002.2
20260505191827 61 259 8.0 11.0 0.00 0.00 0.00 32 1002.2
20260505190827 61 237 5.0 5.0 0.00 0.00 0.00 33 1002.0
20260505185826 60 246 9.0 10.0 0.00 0.00 0.00 31 1002.2
20260505184828 61 281 7.0 10.0 0.00 0.00 0.00 33 1002.2
20260505183826 60 225 7.0 10.0 0.00 0.00 0.00 32 1002.3
20260505182827 61 248 8.0 8.0 0.00 0.00 0.00 33 1002.3
20260505181827 61 273 6.0 8.0 0.00 0.00 0.00 34 1002.4
20260505180828 59 239 5.0 5.0 0.00 0.00 0.00 33 1002.5
20260505174826 59 238 7.0 10.0 0.00 0.00 0.00 35 1002.6
20260505173827 60 252 9.0 13.0 0.00 0.00 0.00 35 1002.8
20260505172826 60 263 7.0 8.0 0.00 0.00 0.00 35 1002.6
20260505171827 59 229 5.0 6.0 0.00 0.00 0.00 34 1002.9
20260505170827 60 271 5.0 6.0 0.00 0.00 0.00 35 1002.8
20260505165828 59 248 7.0 10.0 0.00 0.00 0.00 33 1002.8
20260505164827 60 266 3.0 4.0 0.00 0.00 0.00 32 1002.8
20260505163828 59 256 7.0 8.0 0.00 0.00 0.00 34 1002.8
20260505162827 60 258 7.0 8.0 0.00 0.00 0.00 34 1002.9
20260505161827 58 243 6.0 7.0 0.00 0.00 0.00 34 1002.7
20260505160827 57 257 6.0 7.0 0.00 0.00 0.00 37 1002.9
20260505152826 57 253 4.0 6.0 0.00 0.00 0.00 37 1003.1
20260505151828 57 237 7.0 10.0 0.00 0.00 0.00 36 1003.1
20260505150827 57 218 3.0 3.0 0.00 0.00 0.00 38 1003.0
20260505124827 52 356 1.0 2.0 0.00 0.00 0.00 46 1002.3
20260505123827 52 255 2.0 2.0 0.00 0.00 0.00 51 1002.3
20260505122828 50 259 0.0 1.0 0.00 0.00 0.00 57 1002.4
20260505121827 47 278 0.0 0.0 0.00 0.00 0.00 64 1002.5
20260505120827 44 65 0.0 0.0 0.00 0.00 0.00 68 1002.5
20260505114827 43 238 0.0 0.0 0.00 0.00 0.00 70 1002.4
20260505113827 42 209 0.0 0.0 0.00 0.00 0.00 70 1002.2
20260505112827 41 209 0.0 0.0 0.00 0.00 0.00 70 1001.7
20260505111827 42 239 0.0 0.0 0.00 0.00 0.00 70 1001.7
20260505110828 41 230 0.0 0.0 0.00 0.00 0.00 69 1001.4
20260505100827 44 239 0.0 0.0 0.00 0.00 0.00 66 1000.9
20260505095827 43 238 0.0 0.0 0.00 0.00 0.00 65 1000.8
20260505094827 44 243 0.0 0.0 0.00 0.00 0.00 64 1000.8
20260505093827 44 209 0.0 0.0 0.00 0.00 0.00 63 1000.6
20260505091827 45 209 0.0 0.0 0.00 0.00 0.00 58 1000.4
20260505085827 46 255 1.0 2.0 0.00 0.00 0.00 57 999.7
20260505084828 46 307 1.0 2.0 0.00 0.00 0.00 56 999.4
20260505083827 47 259 1.0 2.0 0.00 0.00 0.00 55 999.4
20260505082827 47 253 1.0 2.0 0.00 0.00 0.00 55 999.4
20260505081827 48 274 2.0 2.0 0.00 0.00 0.00 54 999.3
20260505080827 48 281 2.0 2.0 0.00 0.00 0.00 52 999.1
20260505075827 49 304 2.0 3.0 0.00 0.00 0.00 51 999.0
20260505074827 50 15 4.0 4.0 0.00 0.00 0.00 50 999.0
20260505073827 50 37 2.0 3.0 0.00 0.00 0.00 49 999.4
20260505072827 50 79 2.0 3.0 0.00 0.00 0.00 48 999.9
20260505071827 51 302 5.0 6.0 0.00 0.00 0.00 47 999.7
20260505070827 51 7 2.0 2.0 0.00 0.00 0.00 47 999.5
20260505065827 51 263 3.0 4.0 0.00 0.00 0.00 47 999.9
20260505063827 52 252 3.0 4.0 0.00 0.00 0.00 47 1000.2
20260505061827 52 340 3.0 4.0 0.00 0.00 0.00 48 999.2
20260505060828 52 110 2.0 4.0 0.00 0.00 0.00 47 999.8
20260505055827 52 250 6.0 10.0 0.00 0.00 0.00 47 999.4
20260505054827 53 250 5.0 6.0 0.00 0.00 0.00 47 999.0
20260505053827 52 272 8.0 10.0 0.00 0.00 0.00 48 999.3
20260505052827 52 12 7.0 9.0 0.00 0.00 0.00 49 999.4
20260505050827 53 264 6.0 8.0 0.00 0.00 0.00 48 998.5